Have a Safe July 4th! 

Flight Track Log - Related Links

Times and Time Zones

All times are in EDT time to prevent confusion due to time zone crossing. See the SKW5542 flight status page for this flight to view local times or setup timezone preferences in your user account.

Time Position Orientation Groundspeed Altitude Reporting Facility
EDT Latitude Longitude Course Direction KTS MPH feet Rate Location/Type
Wed 06:00:46 AM 48.3667 -89.2833 156° South 140 161 700  Level Winnipeg Center
Wed 06:01:46 AM 48.3333 -89.3333 225° Southwest 160 184 2,500 1,700 Climbing Winnipeg Center
Wed 06:02:46 AM 48.3000 -89.3667 214° Southwest 250 288 4,100 2,400 Climbing Winnipeg Center
Wed 06:03:46 AM 48.2333 -89.3333 162° South 270 311 7,300 2,950 Climbing Winnipeg Center
Wed 06:04:00 AM 48.0192 -89.0654 152° Southeast  Level FlightAware Approximate
Wed 06:04:46 AM 48.1500 -89.3000 165° South 280 322 10,000  Level Winnipeg Center
Wed 06:05:00 AM 47.9318 -89.0044 156° South  Level FlightAware Approximate
Wed 06:05:46 AM 48.0667 -89.2500 158° South 330 380 11,500  Level Winnipeg Center
Wed 06:06:00 AM 47.8559 -88.9539 156° South  Level FlightAware Approximate
Wed 06:06:46 AM 47.9833 -89.2000 158° South 340 391 13,700  Level Winnipeg Center
Wed 06:07:46 AM 47.8833 -89.1667 167° South 350 403 15,900 2,000 Climbing Winnipeg Center
Wed 06:08:46 AM 47.8000 -89.1000 152° Southeast 360 414 17,700 1,700 Climbing Winnipeg Center
Wed 06:09:46 AM 47.7000 -89.0667 167° South 370 426 19,300 1,500 Climbing Winnipeg Center
Wed 06:10:46 AM 47.6000 -89.0000 156° South 370 426 20,700 1,146 Climbing Winnipeg Center
Wed 06:11:15 AM 47.5856 -89.0161 217° Southwest 375 432 21,000 1,146 Climbing Minneapolis Center
Wed 06:12:15 AM 47.4847 -88.9642 161° South 382 440 22,400 1,190 Climbing Minneapolis Center
Wed 06:13:16 AM 47.3836 -88.9103 160° South 385 443 23,400 992 Climbing Minneapolis Center
Wed 06:14:16 AM 47.2794 -88.8556 160° South 394 453 24,400 950 Climbing Minneapolis Center
Wed 06:15:16 AM 47.1744 -88.8022 161° South 399 459 25,300 950 Climbing Minneapolis Center
Wed 06:16:16 AM 47.0694 -88.7472 160° South 401 461 26,300 992 Climbing Minneapolis Center
Wed 06:17:17 AM 46.9633 -88.6922 161° South 402 463 27,300 843 Climbing Minneapolis Center
Wed 06:18:17 AM 46.8594 -88.6389 161° South 397 457 28,000 350 Climbing Minneapolis Center
Wed 06:19:17 AM 46.7536 -88.5853 161° South 400 460 28,000  Level Minneapolis Center
Wed 06:20:18 AM 46.6417 -88.5278 161° South 420 483 28,000  Level Minneapolis Center
Wed 06:21:18 AM 46.5306 -88.4711 161° South 422 486 28,000  Level Minneapolis Center
Wed 06:22:18 AM 46.4178 -88.4142 161° South 426 490 28,000  Level Minneapolis Center
Wed 06:23:19 AM 46.3067 -88.3581 161° South 424 488 28,000  Level Minneapolis Center
Wed 06:24:19 AM 46.1950 -88.3014 161° South 422 486 28,000  Level Minneapolis Center
Wed 06:25:19 AM 46.0842 -88.2461 161° South 420 483 28,000  Level Minneapolis Center
Wed 06:26:20 AM 45.9747 -88.1925 161° South 415 478 28,000  Level Minneapolis Center
Wed 06:27:20 AM 45.8592 -88.1344 161° South 414 476 28,000  Level Minneapolis Center
Wed 06:28:20 AM 45.7525 -88.1128 172° South 393 452 28,000  Level Minneapolis Center
Wed 06:29:21 AM 45.6464 -88.1144 181° South 382 440 28,000  Level Minneapolis Center
Wed 06:30:21 AM 45.5406 -88.1150 180° South 382 440 28,000 -50 Level Minneapolis Center
Wed 06:31:21 AM 45.4361 -88.1158 180° South 377 434 27,900  Descending Minneapolis Center
Wed 06:32:22 AM 45.3328 -88.1158 180° South 374 430 28,000 -149 Climbing Minneapolis Center
Wed 06:33:22 AM 45.2308 -88.1167 180° South 369 425 27,600 -700 Descending Minneapolis Center
Wed 06:34:22 AM 45.1292 -88.1186 181° South 367 422 26,600 -992 Descending Minneapolis Center
Wed 06:35:23 AM 45.0256 -88.1183 180° South 372 428 25,600 -992 Descending Minneapolis Center
Wed 06:36:23 AM 44.9206 -88.1208 181° South 377 434 24,600 -1,000 Descending Minneapolis Center
Wed 06:37:23 AM 44.8139 -88.1206 180° South 382 440 23,600 -793 Descending Minneapolis Center
Wed 06:38:24 AM 44.6967 -88.1200 180° South 390 449 23,000 -298 Descending Minneapolis Center
Wed 06:39:24 AM 44.5881 -88.1211 180° South 390 449 23,000  Level Minneapolis Center
Wed 06:40:24 AM 44.4797 -88.1211 180° South 390 449 23,000  Level Minneapolis Center
Wed 06:41:25 AM 44.3700 -88.1211 180° South 392 451 23,000  Level Minneapolis Center
Wed 06:42:25 AM 44.2608 -88.1214 180° South 391 450 23,000  Level Minneapolis Center
Wed 06:43:26 AM 44.1539 -88.1214 180° South 386 444 23,000 -843 Level Minneapolis Center
Wed 06:44:26 AM 44.0442 -88.1228 181° South 390 449 21,300 -2,000 Descending Minneapolis Center
Wed 06:45:26 AM 43.9358 -88.1247 181° South 390 449 19,000 -2,231 Descending Minneapolis Center
Wed 06:46:27 AM 43.8306 -88.1247 180° South 379 436 16,800 -2,231 Descending Minneapolis Center
Wed 06:47:27 AM 43.7233 -88.1272 181° South 381 438 14,500 -1,835 Descending Minneapolis Center
Wed 06:48:28 AM 43.6150 -88.1264 180° South 386 444 13,100 -1,059 Descending Minneapolis Center
Wed 06:48:52 AM 43.5619 -88.1256 179° South 384 442 13,000 -71 Descending Chicago Center
Wed 06:49:52 AM 43.4544 -88.1261 180° South 382 440 13,000 -99 Level Chicago Center
Wed 06:50:53 AM 43.3528 -88.0789 161° South 400 460 12,800 -590 Descending Chicago Center
Wed 06:51:54 AM 43.2592 -87.9972 148° Southeast 396 456 11,800 -992 Descending Chicago Center
Wed 06:52:54 AM 43.1664 -87.9189 148° Southeast 392 451 10,800 -893 Descending Chicago Center
Wed 06:53:55 AM 43.0764 -87.8439 149° Southeast 380 437 10,000 -393 Descending Chicago Center
Wed 06:54:56 AM 42.9883 -87.7689 148° Southeast 373 429 10,000  Level Chicago Center
Wed 06:55:56 AM 42.9000 -87.6939 148° Southeast 373 429 10,000 -50 Level Chicago Center
Wed 06:56:57 AM 42.8100 -87.6722 170° South 322 371 9,900 -934 Descending Chicago Center
Wed 06:57:58 AM 42.7303 -87.6642 176° South 291 335 8,100 -1,438 Descending Chicago Center
Wed 06:58:58 AM 42.6503 -87.6581 177° South 288 331 7,000 -537 Descending Chicago Center
Wed 07:00:01 AM 42.5725 -87.6511 176° South 280 322 7,000  Level Chicago Center
Wed 07:01:01 AM 42.4922 -87.6406 174° South 287 330 7,000  Level Chicago Center
Wed 07:02:02 AM 42.4144 -87.6147 166° South 286 329 7,000 -197 Level Chicago Center
Wed 07:03:03 AM 42.3381 -87.5897 166° South 282 325 6,600 -744 Descending Chicago Center
Wed 07:04:03 AM 42.2644 -87.5683 168° South 282 325 5,500 -1,289 Descending Chicago Center
Wed 07:05:04 AM 42.1900 -87.5544 172° South 274 315 4,000 -738 Descending Chicago Center
Wed 07:06:05 AM 42.1031 -87.5928 198° South 276 318 4,000  Level Chicago Center
Wed 07:06:39 AM 42.0667 -87.6000 188° South 260 299 4,000  Level Chicago TRACON

Login

Don't have an account? Register now (free) for customized features, flight alerts, and more!